Location: Lafig�re
(44.4503°N, 4.0357°E)
Time: 14:42:00
(UTC+00:00)

S-56A Canister/Altair - Pass Details

Date: 22 January 2021
Orbit: 631 x 2501 km, 38.9° (Epoch: 01 March)

Event Time Altitude Azimuth Distance (km) Brightness Sun altitude
Rises 04:07:20 0° 250° (WSW) 2,910 - -32.7°
Reaches altitude 10° 04:09:36 10° 243° (WSW) 2,019 - -32.3°
Maximum altitude 04:13:50 43° 172° (S) 973 - -31.6°
Exits shadow 04:15:06 36° 134° (SE) 1,145 8.6 -31.4°
Drops below altitude 10° 04:19:00 10° 101° (E) 2,456 11.0 -30.7°
Sets 04:22:01 0° 95° (E) 3,630 12.2 -30.1°
